Location: Newark
(25.6108°S, 54.5803°W)
Time: 15:59:08
(UTC+00:00)

Courier 1B Rocket - Pass Details

Date: 02 November 2020
Orbit: 920 x 1202 km, 28.2° (Epoch: 22 November)

Event Time Altitude Azimuth Distance (km) Brightness Sun altitude
Rises 08:11:43 0° 284° (WNW) 4,068 - -8.7°
Exits shadow 08:14:23 - 284° (WNW) 3,160 7.0 -8.1°
Reaches altitude 10° 08:14:36 10° 284° (WNW) 3,083 6.9 -8.1°
Maximum altitude 08:22:18 89° 197° (SSW) 1,130 5.4 -6.5°
Drops below altitude 10° 08:29:30 10° 103° (ESE) 2,897 9.4 -4.9°
Sets 08:32:08 0° 102° (ESE) 3,811 10.7 -4.4°
